This demonstration page uses our WeatherBlox Daily Observations layout. Learn more.

Left ArrowRight Arrow

44.8408, -93.29828

Hourly Observations for March 9, 2016

Temp ( °F °C ) Dew Point ( °F °C ) Humidity (%) Winds ( mph kmh ) Pressure ( in mb ) Visibility ( mi km ) Precip ( " mm )
12:53 am 00:53 Cloudy 39 3.9 33 0.6 79 79 W 13 20 29.79 1009 10 16 0.00 0.00
1:13 am 01:13 Cloudy 39 3.9 33 0.6 79 79 W 7 11 29.80 1009 10 16 0.00 0.00
1:53 am 01:53 Cloudy 38 3.3 33 0.6 83 83 W 6 9 29.77 1008 10 16 0.00 0.00
2:53 am 02:53 Cloudy 37 2.8 32 0 82 82 W 10 17 29.79 1009 10 16 0.00 0.00
3:17 am 03:17 Cloudy 37 2.8 33 0.6 86 86 W 6 9 29.80 1009 10 16 0.00 0.00
3:53 am 03:53 Cloudy 36 2.2 32 0 86 86 WSW 6 9 29.80 1009 10 16 0.00 0.00
4:53 am 04:53 Cloudy 36 2.2 33 0.6 89 89 WSW 9 15 29.81 1009 10 16 0.00 0.00
5:53 am 05:53 Cloudy 36 2.2 33 0.6 89 89 W 9 15 29.82 1010 7 11 0.00 0.00
6:53 am 06:53 Cloudy with Mist and Fog 35 1.7 33 0.6 93 93 W 9 15 29.84 1010 4 6 0.00 0.00
7:13 am 07:13 Cloudy with Drizzle 36 2.2 33 0.6 89 89 WSW 9 15 29.91 1013 3 4 0.00 0.03
7:53 am 07:53 Cloudy with Drizzle 36 2.2 34 1.1 93 93 SW 6 9 29.89 1012 3 4 0.00 0.03
8:20 am 08:20 Cloudy with Drizzle 36 2.2 34 1.1 93 93 WSW 6 9 29.94 1014 3 5 0.00 0.03
8:53 am 08:53 Cloudy with Drizzle 36 2.2 34 1.1 93 93 WSW 7 11 29.93 1014 4 6 0.00 0.03
9:53 am 09:53 Cloudy with Drizzle 38 3.3 35 1.7 89 89 W 9 15 29.92 1013 7 11 0.00 0.03
10:53 am 10:53 Cloudy 39 3.9 36 2.2 89 89 WSW 9 15 29.96 1014 8 13 0.00 0.03
11:53 am 11:53 Cloudy 39 3.9 36 2.2 89 89 SW 6 9 29.96 1015 10 16 0.00 0.00
12:16 pm 12:16 Cloudy 40 4.4 36 2.2 86 86 SSW 8 13 29.97 1015 10 16 0.00 0.00
12:53 pm 12:53 Cloudy 40 4.4 35 1.7 83 83 SW 9 15 29.96 1015 10 16 0.00 0.00
1:43 pm 13:43 Cloudy 41 5 35 1.7 79 79 WSW 8 13 29.97 1015 10 16 0.00 0.00
1:53 pm 13:53 Cloudy 41 5 35 1.7 79 79 W 7 11 29.95 1014 10 16 0.00 0.00
2:53 pm 14:53 Cloudy 42 5.6 35 1.7 76 76 SW 8 13 29.98 1015 10 16 0.00 0.00
3:53 pm 15:53 Cloudy 41 5 35 1.7 79 79 SSW 8 13 29.96 1015 10 16 0.00 0.00
4:53 pm 16:53 Cloudy with Drizzle 40 4.4 37 2.8 89 89 SW 7 11 29.99 1016 6 10 0.00 0.03
5:11 pm 17:11 Cloudy with Drizzle 40 4.4 37 2.8 89 89 SW 8 13 29.97 1015 6 10 0.00 0.03
5:49 pm 17:49 Cloudy 39 4 36 2 87 87 WSW 6 9 30.03 1017 10 16 0.00 0.03
5:53 pm 17:53 Cloudy 39 3.9 36 2.2 89 89 WSW 8 13 30.02 1017 10 16 0.00 0.03
6:53 pm 18:53 Cloudy 39 3.9 35 1.7 86 86 W 8 13 30.04 1017 10 16 0.00 0.00
7:53 pm 19:53 Cloudy with Drizzle 39 3.9 34 1.1 82 82 W 8 13 30.06 1018 10 16 0.00 0.03
8:35 pm 20:35 Cloudy 38 3.3 34 1.1 86 86 W 8 13 30.09 1019 10 16 0.00 0.03
8:53 pm 20:53 Cloudy 38 3.3 34 1.1 86 86 WSW 5 7 30.08 1019 10 16 0.00 0.03
9:05 pm 21:05 Cloudy 38 3.3 34 1.1 86 86 W 6 9 30.09 1019 10 16 0.00 0.00
9:16 pm 21:16 Cloudy 37 3 34 1 87 87 W 7 11 30.09 1019 10 16 0.00 0.00
9:53 pm 21:53 Cloudy 37 2.8 34 1.1 89 89 WNW 9 15 30.07 1018 10 16 0.00 0.00
10:53 pm 22:53 Cloudy 37 2.8 34 1.1 89 89 W 3 6 30.08 1019 10 16 0.00 0.00
11:36 pm 23:36 Cloudy 37 2.8 34 1.1 89 89 WSW 6 9 30.12 1020 10 16 0.00 0.00
11:53 pm 23:53 Cloudy 37 2.8 34 1.1 89 89 SW 5 7 30.09 1019 10 16 0.00 0.00

Powered by AerisWeather